This is the latest recevied weather packets stored in our database for station/object KA3ZXO. If no packets are shown the sender has not sent any weather packets the latest 1 day(s).
| Time | Temp. | Humidity | Pressure | Rain* | Wind** | Luminosity | Snow |
|---|---|---|---|---|---|---|---|
| 1777989650 | 20.56° C | 59% | 1013.5 hPa | 0 mm | 0 m/s | 26 W/m² | - |
| 1777989048 | 20° C | 59% | 1013.5 hPa | 0 mm | 0.45 m/s, 172° | 26 W/m² | - |
| 1777988448 | 20° C | 59% | 1013.4 hPa | 0 mm | 0.45 m/s, 197° | 25 W/m² | - |
| 1777987846 | 19.44° C | 61% | 1013.3 hPa | 0 mm | 0.45 m/s, 230° | 24 W/m² | - |
| 1777987246 | 19.44° C | 61% | 1013.5 hPa | 0 mm | 0.45 m/s, 60° | 24 W/m² | - |
| 1777986641 | 19.44° C | 61% | 1013.4 hPa | 0 mm | 0 m/s | 24 W/m² | - |
| 1777986037 | 18.89° C | 62% | 1013.5 hPa | 0 mm | 0.45 m/s, 71° | 33 W/m² | - |
| 1777985436 | 18.89° C | 62% | 1013.5 hPa | 0 mm | 0 m/s | 37 W/m² | - |
| 1777984834 | 18.33° C | 63% | 1013.4 hPa | 0 mm | 0 m/s | 29 W/m² | - |
| 1777984232 | 18.33° C | 64% | 1013.4 hPa | 0 mm | 0 m/s | 20 W/m² | - |
| 1777983632 | 18.33° C | 65% | 1013.5 hPa | 0 mm | 0 m/s | 29 W/m² | - |
| 1777983031 | 17.78° C | 65% | 1013.3 hPa | 0 mm | 0 m/s | 25 W/m² | - |
| 1777982429 | 17.78° C | 67% | 1013.3 hPa | 0 mm | 0.45 m/s, 131° | 19 W/m² | - |
| 1777981828 | 17.22° C | 68% | 1013.4 hPa | 0 mm | 0 m/s | 16 W/m² | - |
| 1777981227 | 17.22° C | 69% | 1013.1 hPa | 0 mm | 0 m/s | 14 W/m² | - |
| 1777980626 | 17.22° C | 69% | 1013 hPa | 0 mm | 0 m/s | 14 W/m² | - |
| 1777980020 | 16.67° C | 69% | 1013 hPa | 0 mm | 0.45 m/s, 180° | 16 W/m² | - |
| 1777979416 | 16.67° C | 70% | 1012.9 hPa | 0 mm | 0 m/s | 16 W/m² | - |
| 1777978815 | 16.67° C | 70% | 1013 hPa | 0 mm | 0.45 m/s, 147° | 12 W/m² | - |
| 1777978214 | 16.67° C | 70% | 1012.8 hPa | 0 mm | 0 m/s | 10 W/m² | - |
| 1777977614 | 16.67° C | 70% | 1012.7 hPa | 0 mm | 0 m/s | 7 W/m² | - |
| 1777977015 | 16.67° C | 70% | 1012.8 hPa | 0 mm | 0 m/s | 5 W/m² | - |
| 1777976409 | 16.67° C | 70% | 1012.7 hPa | 0 mm | 0.45 m/s, 160° | 3 W/m² | - |
| 1777975809 | 16.67° C | 69% | 1012.7 hPa | 0 mm | 0 m/s | 1 W/m² | - |
| 1777975209 | 16.67° C | 69% | 1012.7 hPa | 0 mm | 0 m/s | 0 W/m² | - |
* Rain latest hour (hover to see other rain measurements)
** Current wind speed in m/s (hover to see current wind gust speed)